2018-099F (43763 NORAD) Tracking and Keplerian Element Data

This shows tracking and keplerian element data for the satellite.

Feedback or suggestion? Click here.




ElementValue
Catalog43763
Name2018-099F
Epoch Orbit103
Epoch Day344.64322206
Epoch Year2018
RAAN53.7373
Inclination97.7666
Eccentricity0.0011859
Argument of Perigee238.4289
Mean Anonmoly121.6029
Mean Motion14.95463074
Decay Rate-1.94E-06
L11 43763U 18099F 18344.64322206 -.00000194 00000-0 -12213-4 0 9994
L22 43763 97.7666 53.7373 0011859 238.4289 121.6029 14.95463074 1032

Live tracking and technical data element details for 2018-099F (NORAD 43763). 2018-099F can be tracked NOW for your location showing map with azimuth and elevation plus other details from your city location.

Track the satellite on the map from your city or location and see movement details for azimuth, elevation, latitude, longitude, range, height, and movement on the map or in text.







IsCatalogInMostPopularTable: catalog: 43763, numindb: 2
Update: records affected: 1



GetName: 43763 2018-099F

Hit Count: updated at: Tue, 11 Dec 2018 03:00:47 GMT